彩虹 1星 (RADUGA 1)

导读 | 星芒AI

RADUGA 1 是一颗由俄罗斯研制并发射的军用通信卫星,属于俄罗斯“彩虹”(Raduga)系列。该卫星主要用于军事通信,支持加密数据传输和战略指挥系统。它运行在地球同步轨道,旨在提升俄军在全球范围内的通信能力与作战协调效率。RADUGA 1 的部署增强了俄罗斯在太空领域的战略存在,并在一定程度上减少了对国外通信基础设施的依赖。

基本信息
目录编号:
8513
目录名称:
RADUGA 1
国际标识:
1975-123A
轨道中心:
EARTH
卫星名称:
彩虹 1星
卫星全名:
彩虹 1星 (RADUGA 1)
卫星状态:
在轨 (已飞行18194 天)
发射日期:
1975-12-22 UTC
国别 :
俄罗斯(独联体) (CIS)
星等 :
--
轨道信息
数据来源 国际轨道数据 AOE轨道数据
星历时间 2025-10-14T06:23:02+0800
15小时前
查看轨道信息
2025-10-12T04:00:00+0800
2天前
查看轨道信息
半长轴 42164.532km 42164.42km
偏心率 0.0006159 0.0006208
轨道倾角 3.443° 3.448°
近地点辐角 283.004° 282.659°
升交点赤经 270.684° 270.716°
平近点角 250.557° 213.030°
近地点 35760.427km 35760.109km
远地点 35812.367km 35812.461km
周期 1436.087分钟 1436.081分钟
每日圈数 1.002725 1.002729
详细信息
平衡模式:
三轴稳定
覆盖范围:
全球
运营商:
俄罗斯国家航天集团
运营商所在国:
俄罗斯
制造商(研发单位):
普里克拉德诺伊·梅哈尼基设计局
制造商所在国:
俄罗斯联邦
使用方式:
暂无
卫星简介
彩虹卫星(Raduga, Gran)是苏联用于军事和通信目的的一系列地球静止通信卫星。彩虹卫星旨在支持军事通信、Orbita地面电视网络,并在整个东半球(极地地区除外)提供电话和电报通信。该卫星已退役。
2D轨道图
3D轨道图
轨道高度分析图
轨道倾角分析图
轨道综合分析图
查看轨道综合分析图